Location: Stara Lesna
(49.1528°N, 20.2911°E)
Time: 04:47:59
(UTC+02:00)

Meteor 1-28 Rocket - Pass Details

Date: 21 September 2019
Orbit: 505 x 522 km, 97.3° (Epoch: 14 October)

Event Time Altitude Azimuth Distance (km) Brightness Sun altitude
Exits shadow 04:20:17 42° 308° (NW) 754 3.8 -20.2°
Drops below altitude 10° 04:23:06 10° 339° (NNW) 1,761 5.9 -19.7°
Sets 04:25:16 0° 344° (NNW) 2,657 6.9 -19.4°
